• In Lithuania
  • List of Countries
  • For 7 days
  • Water Temperature
  • Satellite Maps
  • Weather Map
  • Weather Widgets
  • user-avatar
    Login

    Hourly Weather Pocatello

    Today, 21 August, Tuesday

    Time Temperature Precipitation Wind Pressure Humidity
    00:00 +17°C° 0 mm 2 mps 636 mmHg 49%
    01:00 +16°C° 0 mm 2 mps 636 mmHg 53%
    02:00 +15°C° 0 mm 2 mps 636 mmHg 57%
    03:00 +14°C° 0 mm 2 mps 636 mmHg 60%
    04:00 +13°C° 0 mm 2 mps 636 mmHg 64%
    05:00 +13°C° 0 mm 2 mps 636 mmHg 67%
    06:00 +14°C° 0 mm 2 mps 637 mmHg 62%
    07:00 +16°C° 0 mm 2 mps 638 mmHg 56%
    08:00 +18°C° 0 mm 2 mps 638 mmHg 51%
    09:00 +20°C° 0 mm 2 mps 639 mmHg 44%
    10:00 +23°C° 0 mm 2 mps 639 mmHg 37%
    11:00 +25°C° 0 mm 2 mps 640 mmHg 30%
    12:00 +26°C° 0 mm 2 mps 640 mmHg 26%
    13:00 +27°C° 0 mm 2 mps 640 mmHg 23%
    14:00 +29°C° 0 mm 2 mps 640 mmHg 19%
    15:00 +29°C° 0 mm 2 mps 640 mmHg 18%
    16:00 +29°C° 0 mm 3 mps 640 mmHg 18%
    17:00 +29°C° 0 mm 3 mps 640 mmHg 17%
    18:00 +26°C° 0 mm 2 mps 640 mmHg 20%
    19:00 +24°C° 0 mm 2 mps 639 mmHg 24%
    20:00 +21°C° 0 mm 1 mps 638 mmHg 27%
    21:00 +19°C° 0 mm 2 mps 638 mmHg 29%
    22:00 +18°C° 0 mm 2 mps 638 mmHg 31%
    23:00 +18°C° 0 mm 2 mps 638 mmHg 32%

    Tomorrow, 22 August, Wednesday

    Time Temperature Precipitation Wind Pressure Humidity
    00:00 +17°C° 0 mm 2 mps 638 mmHg 35%
    01:00 +16°C° 0 mm 2 mps 638 mmHg 37%
    02:00 +15°C° 0 mm 1 mps 638 mmHg 40%
    03:00 +15°C° 0 mm 1 mps 637 mmHg 44%
    04:00 +14°C° 0 mm 1 mps 637 mmHg 48%
    05:00 +14°C° 0 mm 1 mps 637 mmHg 52%
    06:00 +15°C° 0.1 mm 1 mps 637 mmHg 50%
    07:00 +18°C° 0.1 mm 1 mps 638 mmHg 47%
    08:00 +20°C° 0.1 mm 1 mps 638 mmHg 45%
    09:00 +22°C° 0.1 mm 1 mps 639 mmHg 39%
    10:00 +24°C° 0.1 mm 2 mps 639 mmHg 34%
    11:00 +26°C° 0.1 mm 2 mps 640 mmHg 29%
    12:00 +27°C° 0 mm 3 mps 640 mmHg 26%
    13:00 +28°C° 0 mm 4 mps 640 mmHg 22%
    14:00 +30°C° 0 mm 5 mps 640 mmHg 19%
    15:00 +29°C° 0 mm 5 mps 640 mmHg 19%
    16:00 +29°C° 0 mm 6 mps 639 mmHg 19%
    17:00 +28°C° 0 mm 6 mps 639 mmHg 20%
    18:00 +26°C° 0 mm 5 mps 638 mmHg 23%
    19:00 +23°C° 0 mm 4 mps 638 mmHg 26%
    20:00 +20°C° 0 mm 3 mps 637 mmHg 30%
    21:00 +19°C° 0.1 mm 3 mps 637 mmHg 32%
    22:00 +18°C° 0.1 mm 2 mps 637 mmHg 35%
    23:00 +18°C° 0.1 mm 1 mps 637 mmHg 38%

    Day after tomorrow, 23 August, Thursday

    Time Temperature Precipitation Wind Pressure Humidity
    00:00 +16°C° 0 mm 2 mps 637 mmHg 39%
    01:00 +16°C° 0 mm 2 mps 636 mmHg 40%
    02:00 +15°C° 0 mm 2 mps 636 mmHg 41%
    03:00 +15°C° 0 mm 2 mps 636 mmHg 43%
    04:00 +14°C° 0 mm 2 mps 636 mmHg 45%
    05:00 +14°C° 0 mm 2 mps 636 mmHg 47%
    06:00 +16°C° 0 mm 2 mps 637 mmHg 43%
    07:00 +18°C° 0 mm 2 mps 637 mmHg 39%
    08:00 +20°C° 0 mm 2 mps 638 mmHg 35%
    09:00 +24°C° 0 mm 3 mps 639 mmHg 30%
    10:00 +26°C° 0 mm 4 mps 639 mmHg 24%
    11:00 +29°C° 0 mm 5 mps 640 mmHg 19%
    12:00 +29°C° 0 mm 6 mps 639 mmHg 17%
    13:00 +30°C° 0 mm 6 mps 639 mmHg 16%
    14:00 +32°C° 0 mm 7 mps 639 mmHg 14%
    15:00 +32°C° 0 mm 7 mps 639 mmHg 14%
    16:00 +32°C° 0 mm 7 mps 638 mmHg 15%
    17:00 +30°C° 0 mm 7 mps 638 mmHg 15%
    18:00 +28°C° 0 mm 6 mps 637 mmHg 19%
    19:00 +25°C° 0 mm 4 mps 637 mmHg 23%
    20:00 +22°C° 0 mm 3 mps 636 mmHg 26%
    21:00 +21°C° 0 mm 3 mps 636 mmHg 28%
    22:00 +20°C° 0 mm 3 mps 636 mmHg 30%
    23:00 +19°C° 0 mm 3 mps 636 mmHg 32%

    24 August, Friday

    Time Temperature Precipitation Wind Pressure Humidity
    00:00 +18°C° 0 mm 3 mps 636 mmHg 33%
    01:00 +18°C° 0 mm 3 mps 636 mmHg 35%
    02:00 +17°C° 0 mm 2 mps 635 mmHg 36%
    03:00 +17°C° 0 mm 2 mps 635 mmHg 37%
    04:00 +16°C° 0 mm 2 mps 635 mmHg 38%
    05:00 +16°C° 0 mm 2 mps 635 mmHg 39%
    06:00 +18°C° 0 mm 3 mps 635 mmHg 35%
    07:00 +20°C° 0 mm 3 mps 636 mmHg 30%
    08:00 +22°C° 0 mm 3 mps 636 mmHg 26%
    09:00 +26°C° 0 mm 4 mps 637 mmHg 23%
    10:00 +28°C° 0 mm 5 mps 637 mmHg 20%
    11:00 +32°C° 0 mm 6 mps 638 mmHg 17%
    12:00 +33°C° 0 mm 7 mps 637 mmHg 16%
    13:00 +33°C° 0 mm 7 mps 637 mmHg 15%
    14:00 +34°C° 0 mm 8 mps 637 mmHg 14%
    15:00 +33°C° 0 mm 8 mps 636 mmHg 14%
    16:00 +33°C° 0 mm 8 mps 636 mmHg 15%
    17:00 +32°C° 0 mm 8 mps 636 mmHg 15%
    18:00 +28°C° 0 mm 6 mps 635 mmHg 18%
    19:00 +25°C° 0 mm 5 mps 635 mmHg 20%
    20:00 +22°C° 0 mm 4 mps 634 mmHg 23%
    21:00 +20°C° 0 mm 3 mps 634 mmHg 25%
    22:00 +19°C° 0 mm 2 mps 634 mmHg 27%
    23:00 +17°C° 0 mm 2 mps 634 mmHg 30%

    25 August, Saturday

    Time Temperature Precipitation Wind Pressure Humidity
    00:00 +17°C° 0 mm 2 mps 634 mmHg 31%
    01:00 +16°C° 0 mm 2 mps 635 mmHg 32%
    02:00 +16°C° 0 mm 2 mps 635 mmHg 33%
    03:00 +15°C° 0 mm 2 mps 635 mmHg 34%
    04:00 +15°C° 0 mm 2 mps 635 mmHg 35%
    05:00 +14°C° 0 mm 2 mps 635 mmHg 36%
    06:00 +16°C° 0 mm 2 mps 636 mmHg 33%
    07:00 +18°C° 0 mm 2 mps 636 mmHg 29%
    08:00 +21°C° 0 mm 2 mps 637 mmHg 26%
    09:00 +24°C° 0 mm 2 mps 638 mmHg 23%
    10:00 +26°C° 0 mm 3 mps 638 mmHg 20%
    11:00 +28°C° 0 mm 4 mps 638 mmHg 16%
    12:00 +29°C° 0 mm 5 mps 638 mmHg 15%
    13:00 +30°C° 0 mm 6 mps 638 mmHg 14%
    14:00 +32°C° 0 mm 7 mps 638 mmHg 12%
    15:00 +32°C° 0 mm 6 mps 637 mmHg 12%
    16:00 +32°C° 0 mm 6 mps 637 mmHg 12%
    17:00 +32°C° 0 mm 6 mps 637 mmHg 13%
    18:00 +28°C° 0 mm 5 mps 636 mmHg 16%
    19:00 +25°C° 0 mm 4 mps 635 mmHg 20%
    20:00 +21°C° 0 mm 2 mps 634 mmHg 23%
    21:00 +20°C° 0 mm 2 mps 634 mmHg 25%
    22:00 +19°C° 0 mm 2 mps 634 mmHg 27%
    23:00 +18°C° 0 mm 2 mps 634 mmHg 28%

    26 August, Sunday

    Time Temperature Precipitation Wind Pressure Humidity
    00:00 +17°C° 0 mm 2 mps 634 mmHg 29%
    01:00 +17°C° 0 mm 2 mps 633 mmHg 30%
    02:00 +16°C° 0 mm 2 mps 633 mmHg 31%
    03:00 +16°C° 0 mm 2 mps 633 mmHg 33%
    04:00 +15°C° 0 mm 2 mps 633 mmHg 35%
    05:00 +14°C° 0 mm 2 mps 633 mmHg 36%
    06:00 +16°C° 0 mm 2 mps 634 mmHg 33%
    07:00 +18°C° 0 mm 2 mps 635 mmHg 30%
    08:00 +21°C° 0 mm 3 mps 635 mmHg 27%
    09:00 +23°C° 0 mm 4 mps 636 mmHg 23%
    10:00 +26°C° 0 mm 5 mps 636 mmHg 19%
    11:00 +28°C° 0 mm 6 mps 637 mmHg 15%
    12:00 +29°C° 0 mm 7 mps 636 mmHg 14%
    13:00 +31°C° 0 mm 8 mps 636 mmHg 13%
    14:00 +32°C° 0 mm 9 mps 636 mmHg 12%
    15:00 +31°C° 0 mm 8 mps 636 mmHg 13%
    16:00 +31°C° 0 mm 8 mps 635 mmHg 14%
    17:00 +29°C° 0 mm 8 mps 635 mmHg 14%
    18:00 +26°C° 0 mm 6 mps 634 mmHg 19%
    19:00 +22°C° 0 mm 4 mps 633 mmHg 24%
    20:00 +19°C° 0 mm 2 mps 632 mmHg 29%
    21:00 +18°C° 0 mm 2 mps 632 mmHg 32%
    22:00 +17°C° 0 mm 2 mps 632 mmHg 34%
    23:00 +16°C° 0 mm 2 mps 632 mmHg 36%
    Show more